Location: Newark
(47.5000°N, 4.6167°E)
Time: 01:24:33
(UTC+00:00)

ISS - Pass Details

Date: 21 May 2021
Orbit: 417 x 422 km, 51.6° (Epoch: 14 June)

Event Time Altitude Azimuth Distance (km) Brightness Sun altitude
Rises 00:07:39 0° 293° (WNW) 2,371 0.3 -22.0°
Reaches altitude 10° 00:09:46 10° 289° (WNW) 1,505 -0.8 -21.9°
Enters shadow 00:10:15 13° 287° (WNW) 1,315 -1.2 -21.9°
